Uvalde, TX

8:26 AM CDT on March 27, 2017 (GMT -0500)
Garner

Weather History for KUVA - July, 2013

Change the Weather History Date:

Tuesday, July 9, 2013

  Actual Average (KHDO) Record (KHDO)
Temperature  
Mean Temperature 86 °F -  
Max Temperature 97 °F 92 °F 100 °F (1996)
Min Temperature 75 °F 70 °F 69 °F (2014)
Cooling Degree Days 21    
Growing Degree Days 36 (Base 50)    
Moisture  
Dew Point 70 °F    
Average Humidity 64    
Maximum Humidity 94    
Minimum Humidity 30    
Precipitation  
Precipitation 0.00 in - - ()
Sea Level Pressure  
Sea Level Pressure 30.09 in    
Wind  
Wind Speed 6 mph (SE)    
Max Wind Speed 18 mph    
Max Gust Speed 24 mph    
Visibility 10 miles    
Events      
Averages and records for this station are not official NWS values.
T = Trace of Precipitation, MM = Missing Value Source: NWS Daily Summary

Daily Weather History Graph

Daily Weather History Graph

Search for Another Location

Airport or City:

Trip Planner

Search our weather history database for the weather conditions in past years. The results will help you decide how hot, cold, wet, or windy it might be!

Date:

Astronomy

Jul. 09, 2013 Rise Set
Actual Time 6:46 AM CDT 8:41 PM CDT
Civil Twilight 6:20 AM CDT 9:08 PM CDT
Nautical Twilight 5:47 AM CDT 9:40 PM CDT
Astronomical Twilight 5:13 AM CDT 10:14 PM CDT
Moon 8:02 AM CDT (7/9) 9:32 PM CDT (7/9)
Length of Visible Light 14h 48m
Length of Day
13h 54m
New Moon, 2% of the Moon is Illuminated
Jul 9
New Moon
Jul 15
First Quarter
Jul 22
Full
Jul 29
Last Quarter
Aug 6
New

Hourly Weather History & Observations

Time (CDT) Temp. Heat Index Dew Point Humidity Pressure Visibility Wind Dir Wind Speed Gust Speed Precip Events Conditions
12:15 AM 77.9 °F - 72.1 °F 82% 30.11 in 10.0 mi ESE 9.2 mph - N/A   Clear
12:35 AM 78.8 °F - 72.0 °F 79% 30.11 in 10.0 mi SE 11.5 mph - N/A   Clear
12:55 AM 78.3 °F - 71.8 °F 80% 30.11 in 10.0 mi SE 5.8 mph - N/A   Clear
1:15 AM 77.9 °F - 72.1 °F 82% 30.11 in 10.0 mi SE 10.4 mph - N/A   Clear
1:35 AM 77.9 °F - 72.5 °F 83% 30.12 in 10.0 mi Calm Calm - N/A   Clear
1:55 AM 77.9 °F - 72.7 °F 84% 30.12 in 10.0 mi SE 9.2 mph - N/A   Clear
2:15 AM 77.9 °F - 73.2 °F 85% 30.12 in 10.0 mi Calm Calm - N/A   Clear
2:35 AM 77.9 °F - 73.4 °F 86% 30.11 in 10.0 mi Calm Calm - N/A   Clear
2:55 AM 77.9 °F - 73.8 °F 87% 30.11 in 10.0 mi Calm Calm - N/A   Clear
3:15 AM 77.9 °F - 74.3 °F 89% 30.11 in 10.0 mi Calm Calm - N/A   Scattered Clouds
3:35 AM 77.4 °F - 74.3 °F 90% 30.11 in 10.0 mi Calm Calm - N/A   Scattered Clouds
3:55 AM 75.9 °F - 72.9 °F 90% 30.11 in 10.0 mi Calm Calm - N/A   Clear
4:15 AM 75.6 °F - 73.0 °F 92% 30.11 in 10.0 mi Calm Calm - N/A   Scattered Clouds
4:35 AM 75.4 °F - 72.9 °F 92% 30.10 in 10.0 mi Calm Calm - N/A   Mostly Cloudy
4:55 AM 75.4 °F - 73.4 °F 94% 30.10 in 10.0 mi Calm Calm - N/A   Overcast
5:15 AM 75.4 °F - 73.4 °F 94% 30.10 in 10.0 mi Calm Calm - N/A   Overcast
5:35 AM 75.4 °F - 73.4 °F 94% 30.11 in 10.0 mi Calm Calm - N/A   Overcast
5:55 AM 75.4 °F - 73.4 °F 94% 30.11 in 10.0 mi Calm Calm - N/A   Overcast
6:15 AM 75.6 °F - 73.4 °F 93% 30.11 in 10.0 mi Calm Calm - N/A   Overcast
6:35 AM 75.9 °F - 73.4 °F 92% 30.11 in 10.0 mi Calm Calm - N/A   Overcast
6:55 AM 75.6 °F - 73.4 °F 93% 30.11 in 10.0 mi Calm Calm - N/A   Overcast
7:15 AM 75.6 °F - 73.4 °F 93% 30.12 in 10.0 mi Calm Calm - N/A   Overcast
7:35 AM 75.7 °F - 73.4 °F 92% 30.13 in 10.0 mi Calm Calm - N/A   Overcast
7:55 AM 76.8 °F - 74.1 °F 91% 30.13 in 10.0 mi Calm Calm - N/A   Overcast
8:15 AM 77.9 °F - 74.8 °F 90% 30.13 in 10.0 mi Calm Calm - N/A   Overcast
8:35 AM 77.9 °F - 74.3 °F 89% 30.14 in 10.0 mi Calm Calm - N/A   Overcast
8:55 AM 77.9 °F - 73.4 °F 86% 30.15 in 7.0 mi SE 6.9 mph - N/A   Overcast
9:15 AM 78.6 °F - 73.0 °F 83% 30.15 in 10.0 mi SE 10.4 mph - N/A   Overcast
9:35 AM 79.7 °F - 73.4 °F 81% 30.16 in 7.0 mi SE 3.5 mph - N/A   Overcast
9:55 AM 79.7 °F - 73.2 °F 80% 30.16 in 10.0 mi SE 9.2 mph - N/A   Mostly Cloudy
10:15 AM 81.9 °F 86.8 °F 72.5 °F 73% 30.15 in 10.0 mi SSE 11.5 mph - N/A   Mostly Cloudy
10:35 AM 81.7 °F 86.5 °F 72.1 °F 73% 30.15 in 10.0 mi SSE 9.2 mph - N/A   Scattered Clouds
10:55 AM 85.8 °F 92.6 °F 73.0 °F 65% 30.15 in 10.0 mi SE 10.4 mph - N/A   Scattered Clouds
11:15 AM 88.0 °F 97.0 °F 74.5 °F 64% 30.14 in 10.0 mi SSE 10.4 mph - N/A   Scattered Clouds
11:35 AM 88.0 °F 94.2 °F 71.4 °F 58% 30.14 in 10.0 mi SSE 8.1 mph - N/A   Scattered Clouds
11:55 AM 88.0 °F 95.6 °F 72.9 °F 61% 30.14 in 10.0 mi SE 5.8 mph 16.1 mph N/A   Scattered Clouds
12:15 PM 88.0 °F 94.2 °F 71.6 °F 58% 30.14 in 10.0 mi SE 8.1 mph 16.1 mph N/A   Scattered Clouds
12:35 PM 88.3 °F 93.6 °F 70.3 °F 55% 30.13 in 10.0 mi SE 4.6 mph - N/A   Scattered Clouds
12:55 PM 90.7 °F 96.9 °F 70.9 °F 52% 30.13 in 10.0 mi SSE 13.8 mph 17.3 mph N/A   Clear
1:15 PM 91.2 °F 96.5 °F 69.4 °F 49% 30.11 in 10.0 mi SSE 15.0 mph 18.4 mph N/A   Clear
1:35 PM 93.2 °F 98.3 °F 69.3 °F 45% 30.11 in 10.0 mi SSE 3.5 mph 21.9 mph N/A   Clear
1:55 PM 93.2 °F 96.7 °F 67.3 °F 42% 30.10 in 10.0 mi SSE 11.5 mph 16.1 mph N/A   Clear
2:15 PM 93.2 °F 96.7 °F 67.1 °F 42% 30.09 in 10.0 mi SSE 3.5 mph - N/A   Clear
2:35 PM 93.2 °F 95.3 °F 64.6 °F 39% 30.09 in 10.0 mi South 11.5 mph 17.3 mph N/A   Clear
2:55 PM 93.2 °F 94.9 °F 64.4 °F 38% 30.08 in 10.0 mi SSE 6.9 mph 18.4 mph N/A   Clear
3:15 PM 95.5 °F 97.9 °F 64.9 °F 36% 30.07 in 10.0 mi South 16.1 mph - N/A   Clear
3:35 PM 95.5 °F 97.9 °F 64.8 °F 36% 30.07 in 10.0 mi SSE 12.7 mph 18.4 mph N/A   Clear
3:55 PM 93.9 °F 95.6 °F 63.9 °F 37% 30.05 in 10.0 mi SE 8.1 mph - N/A   Clear
4:35 PM 95.5 °F 97.4 °F 63.9 °F 35% 30.04 in 10.0 mi SE 4.6 mph 20.7 mph N/A   Clear
4:55 PM 96.3 °F 98.1 °F 63.5 °F 34% 30.03 in 10.0 mi South 12.7 mph - N/A   Clear
5:15 PM 97.7 °F 100.0 °F 63.7 °F 33% 30.02 in 10.0 mi ESE 12.7 mph - N/A   Clear
5:35 PM 96.1 °F 97.3 °F 62.4 °F 33% 30.02 in 10.0 mi SSE 13.8 mph - N/A   Clear
5:55 PM 97.9 °F 99.3 °F 62.8 °F 31% 30.01 in 10.0 mi ESE 8.1 mph 18.4 mph N/A   Clear
6:15 PM 97.9 °F 99.3 °F 62.6 °F 31% 30.00 in 10.0 mi ESE 13.8 mph - N/A   Clear
6:35 PM 95.9 °F 96.1 °F 60.6 °F 31% 30.00 in 10.0 mi SE 11.5 mph - N/A   Clear
6:55 PM 97.7 °F 98.5 °F 61.5 °F 30% 30.00 in 10.0 mi SSE 12.7 mph 18.4 mph N/A   Clear
7:15 PM 95.5 °F 96.0 °F 61.5 °F 32% 29.99 in 10.0 mi ESE 13.8 mph - N/A   Clear
7:35 PM 95.5 °F 96.0 °F 61.5 °F 32% 29.99 in 10.0 mi SE 15.0 mph 19.6 mph N/A   Clear
7:55 PM 95.5 °F 96.5 °F 62.6 °F 33% 29.99 in 10.0 mi SE 11.5 mph 17.3 mph N/A   Clear
8:15 PM 95.5 °F 97.9 °F 64.6 °F 36% 30.00 in 10.0 mi ESE 13.8 mph - N/A   Clear
8:35 PM 93.2 °F 94.1 °F 62.8 °F 36% 30.00 in 10.0 mi Calm Calm - N/A   Clear
8:55 PM 93.2 °F 94.5 °F 63.7 °F 37% 30.00 in 10.0 mi SE 9.2 mph - N/A   Clear
9:15 PM 92.7 °F 97.7 °F 69.3 °F 46% 30.01 in 10.0 mi SE 10.4 mph 19.6 mph N/A   Clear
9:35 PM 89.2 °F 92.4 °F 67.3 °F 48% 30.02 in 10.0 mi SSE 18.4 mph - N/A   Clear
9:55 PM 88.0 °F 91.4 °F 67.8 °F 51% 30.03 in 10.0 mi SSE 17.3 mph 24.2 mph N/A   Clear
10:15 PM 88.0 °F 92.1 °F 69.1 °F 53% 30.03 in 10.0 mi SSE 12.7 mph - N/A   Clear
10:35 PM 88.0 °F 92.9 °F 70.2 °F 55% 30.04 in 10.0 mi SSE 11.5 mph 17.3 mph N/A   Clear
10:55 PM 88.0 °F 93.4 °F 70.7 °F 56% 30.05 in 10.0 mi SSE 10.4 mph 16.1 mph N/A   Clear
11:15 PM 87.4 °F 93.1 °F 71.2 °F 58% 30.05 in 10.0 mi Calm Calm - N/A   Clear
11:35 PM 85.5 °F 90.1 °F 70.0 °F 60% 30.06 in 10.0 mi Calm Calm - N/A   Clear
11:55 PM 85.5 °F 90.4 °F 70.5 °F 61% 30.07 in 10.0 mi SSE 9.2 mph - N/A   Clear